User: anonymous   Login
Location: Marseilles
(40.7010°N, 83.3930°W)
Time: 15:48:58
(UTC-04:00)
Language:

Cosmos 1459 Rocket - Orbit

View from above orbital plane
View from above orbital plane
View from above satellite
View from above satellite

Ground track
Ground track

The orbit data is extracted from the following two-line orbital elements,

1 14059U 83042B   17232.94300724  .00000069  00000-0  51908-4 0  9992
2 14059  82.9734  13.8622 0044004  85.2873 275.3308 13.78593956724671
Epoch (UTC): 20 August 2017 22:37:55
Eccentricity: 0.0044004
inclination: 82.9734°
perigee height: 936 km
apogee height: 1001 km
right ascension of ascending node: 13.8622°
argument of perigee: 85.2873°
revolutions per day: 13.78593956
mean anomaly at epoch: 275.3308°
orbit number at epoch: 72467

The dashed part of the orbit path shows where the satellite is in the earth's shadow,  

DLR